Time,TemperatureF,DewpointF,PressureIn,WindDirection,WindDirectionDegrees,WindSpeedMPH,WindSpeedGustMPH,Humidity,HourlyPrecipIn,Conditions,Clouds,dailyrainin,SoftwareType,DateUTC
2013-03-30 14:35:00,50.8,12.0,30.07,SW,222,3.0,-999.0,21,-99.99,,,0.00,weatherlink.com 1.10,2013-03-30 18:35:00,
2013-03-30 14:50:00,51.3,14.0,30.07,WNW,287,1.0,-999.0,23,-99.99,,,0.00,weatherlink.com 1.10,2013-03-30 18:50:00,
2013-03-30 15:05:00,53.1,16.0,30.05,SSE,162,4.0,-999.0,23,-99.99,,,0.00,weatherlink.com 1.10,2013-03-30 19:05:00,
2013-03-30 15:20:00,52.9,15.0,30.04,South,181,0.0,-999.0,22,-99.99,,,0.00,weatherlink.com 1.10,2013-03-30 19:20:00,
2013-03-30 15:35:00,53.9,17.0,30.03,WSW,251,0.0,-999.0,23,-99.99,,,0.00,weatherlink.com 1.10,2013-03-30 19:35:00,
2013-03-30 15:50:00,53.6,16.0,30.03,SW,234,0.0,-999.0,23,-99.99,,,0.00,weatherlink.com 1.10,2013-03-30 19:50:00,
2013-03-30 16:05:00,54.1,17.0,30.02,WSW,247,0.0,-999.0,23,-99.99,,,0.00,weatherlink.com 1.10,2013-03-30 20:05:00,
2013-03-30 16:20:00,53.5,16.0,30.02,NW,320,6.0,-999.0,23,-99.99,,,0.00,weatherlink.com 1.10,2013-03-30 20:20:00,
2013-03-30 16:35:00,54.1,16.0,30.02,NW,320,3.0,-999.0,22,-99.99,,,0.00,weatherlink.com 1.10,2013-03-30 20:35:00,
2013-03-30 16:50:00,53.5,13.0,30.02,SSE,150,0.0,-999.0,20,-99.99,,,0.00,weatherlink.com 1.10,2013-03-30 20:50:00,
2013-03-30 17:05:00,54.7,15.0,30.01,WNW,296,2.0,-999.0,21,-99.99,,,0.00,weatherlink.com 1.10,2013-03-30 21:05:00,
2013-03-30 17:20:00,55.0,14.0,30.00,WNW,288,0.0,-999.0,20,-99.99,,,0.00,weatherlink.com 1.10,2013-03-30 21:20:00,
2013-03-30 17:35:00,54.1,12.0,30.00,SSE,164,0.0,-999.0,19,-99.99,,,0.00,weatherlink.com 1.10,2013-03-30 21:35:00,
2013-03-30 17:50:00,54.8,14.0,30.00,SW,215,0.0,-999.0,20,-99.99,,,0.00,weatherlink.com 1.10,2013-03-30 21:50:00,
2013-03-30 18:05:00,54.7,16.0,30.00,WSW,256,8.0,-999.0,22,-99.99,,,0.00,weatherlink.com 1.10,2013-03-30 22:05:00,
2013-03-30 18:20:00,54.2,15.0,30.00,West,264,3.0,-999.0,21,-99.99,,,0.00,weatherlink.com 1.10,2013-03-30 22:20:00,
2013-03-30 18:35:00,54.2,15.0,29.99,West,264,0.0,-999.0,21,-99.99,,,0.00,weatherlink.com 1.10,2013-03-30 22:35:00,
2013-03-30 18:50:00,53.5,15.0,29.99,West,264,0.0,-999.0,22,-99.99,,,0.00,weatherlink.com 1.10,2013-03-30 22:50:00,
2013-03-30 19:05:00,53.2,15.0,30.00,West,264,0.0,-999.0,22,-99.99,,,0.00,weatherlink.com 1.10,2013-03-30 23:05:00,
2013-03-30 19:20:00,52.2,15.0,30.00,West,264,0.0,-999.0,23,-99.99,,,0.00,weatherlink.com 1.10,2013-03-30 23:20:00,
2013-03-30 19:35:00,51.1,15.0,30.00,West,264,0.0,-999.0,24,-99.99,,,0.00,weatherlink.com 1.10,2013-03-30 23:35:00,
2013-03-30 19:50:00,49.9,16.0,30.00,West,264,0.0,-999.0,26,-99.99,,,0.00,weatherlink.com 1.10,2013-03-30 23:50:00,
2013-03-30 20:05:00,48.9,16.0,30.00,WSW,258,0.0,-999.0,27,-99.99,,,0.00,weatherlink.com 1.10,2013-03-31 00:05:00,
2013-03-30 20:20:00,48.5,17.0,30.00,WSW,239,0.0,-999.0,28,-99.99,,,0.00,weatherlink.com 1.10,2013-03-31 00:20:00,
2013-03-30 20:35:00,48.2,18.0,30.00,SW,229,0.0,-999.0,30,-99.99,,,0.00,weatherlink.com 1.10,2013-03-31 00:35:00,
2013-03-30 20:50:00,48.0,17.0,29.99,SW,227,0.0,-999.0,29,-99.99,,,0.00,weatherlink.com 1.10,2013-03-31 00:50:00,
2013-03-30 21:05:00,47.7,18.0,29.99,SSW,212,2.0,-999.0,30,-99.99,,,0.00,weatherlink.com 1.10,2013-03-31 01:05:00,
2013-03-30 21:20:00,47.3,19.0,29.98,SSW,202,0.0,-999.0,32,-99.99,,,0.00,weatherlink.com 1.10,2013-03-31 01:20:00,
2013-03-30 21:35:00,47.6,20.0,29.98,SE,143,0.0,-999.0,33,-99.99,,,0.00,weatherlink.com 1.10,2013-03-31 01:35:00,
2013-03-30 21:50:00,47.9,19.0,29.98,SE,136,1.0,-999.0,32,-99.99,,,0.00,weatherlink.com 1.10,2013-03-31 01:50:00,
2013-03-30 22:05:00,48.2,19.0,29.97,ESE,119,3.0,-999.0,32,-99.99,,,0.00,weatherlink.com 1.10,2013-03-31 02:05:00,
2013-03-30 22:20:00,48.9,21.0,29.96,SE,145,4.0,-999.0,33,-99.99,,,0.00,weatherlink.com 1.10,2013-03-31 02:20:00,
2013-03-30 22:35:00,48.9,21.0,29.95,SE,136,11.0,-999.0,33,-99.99,,,0.00,weatherlink.com 1.10,2013-03-31 02:35:00,
2013-03-30 22:50:00,48.6,21.0,29.95,SE,145,0.0,-999.0,33,-99.99,,,0.00,weatherlink.com 1.10,2013-03-31 02:50:00,
2013-03-30 23:05:00,47.9,23.0,29.95,SSE,157,2.0,-999.0,37,-99.99,,,0.00,weatherlink.com 1.10,2013-03-31 03:05:00,
2013-03-30 23:20:00,48.2,22.0,29.93,SE,141,0.0,-999.0,35,-99.99,,,0.00,weatherlink.com 1.10,2013-03-31 03:20:00,
2013-03-30 23:35:00,48.0,21.0,29.93,ESE,121,1.0,-999.0,35,-99.99,,,0.00,weatherlink.com 1.10,2013-03-31 03:35:00,
2013-03-30 23:50:00,48.3,22.0,29.92,SE,144,0.0,-999.0,35,-99.99,,,0.00,weatherlink.com 1.10,2013-03-31 03:50:00,